• Join FlightAware (Why Join?)
  • Login
  • US Flag GB Flag 
14:11 EDT


 

Airport Tracker/Info


-or-


 

Live Flight TrackerFlight Track Log ✈ EJM826 ✈ 01-Aug-2013 ✈ KCMH - KRYY

Flight Track Log - Related Links

Times and Time Zones

All times are in EDT time to prevent confusion due to time zone crossing. See the EJM826 flight status page for this flight to view local times or setup timezone preferences in your user account.

Time Position Orientation Groundspeed Altitude Reporting Facility
EDT Latitude Longitude Course Direction KTS MPH feet Rate Location/Type
16:49 40.0022 -82.9100 272° West 144 166 1,300  Level Indianapolis Center
16:51 40.0044 -82.9950 272° West 194 223 4,400 1,560 Climbing Indianapolis Center
16:52 39.9633 -83.0539 228° Southwest 282 325 5,000 900 Climbing Indianapolis Center
16:53 39.8928 -83.0425 173° South 292 336 6,200 1,920 Climbing Indianapolis Center
16:54 39.8253 -83.0692 197° South 298 343 8,800 2,220 Climbing Indianapolis Center
16:55 39.7483 -83.0319 160° South 318 366 10,900 2,220 Climbing Indianapolis Center
16:56 39.6708 -82.9303 135° Southeast 331 381 13,400 2,100 Climbing Indianapolis Center
16:58 39.4789 -82.8767 168° South 353 406 17,500 1,920 Climbing Indianapolis Center
16:59 39.3808 -82.8439 166° South 362 417 19,400 1,680 Climbing Indianapolis Center
17:00 39.2836 -82.7903 157° South 381 438 21,000 1,620 Climbing Indianapolis Center
17:01 39.1836 -82.7347 157° South 391 450 22,800 1,800 Climbing Indianapolis Center
17:02 39.0600 -82.6789 161° South 395 455 24,700 1,620 Climbing Indianapolis Center
17:03 38.9506 -82.6511 169° South 403 464 26,200 1,380 Climbing Indianapolis Center
17:04 38.8403 -82.6242 169° South 402 463 27,600 1,260 Climbing Indianapolis Center
17:05 38.7250 -82.6000 171° South 418 481 28,900 1,320 Climbing Indianapolis Center
17:06 38.5936 -82.5708 170° South 424 488 30,400 1,260 Climbing Indianapolis Center
17:07 38.4750 -82.5708 180° South 444 511 31,600 1,020 Climbing Indianapolis Center
17:08 38.3547 -82.5925 188° South 436 502 32,600 1,080 Climbing Indianapolis Center
17:09 38.2311 -82.6164 189° South 445 512 33,900 1,200 Climbing Indianapolis Center
17:10 38.1089 -82.6381 188° South 443 510 35,200 1,440 Climbing Indianapolis Center
17:11 37.9681 -82.6642 188° South 435 501 36,900 1,200 Climbing Indianapolis Center
17:12 37.8453 -82.6881 189° South 441 507 37,700 900 Climbing Indianapolis Center
17:13 37.7217 -82.7103 188° South 447 514 38,800 1,080 Climbing Indianapolis Center
17:14 37.5986 -82.7319 188° South 445 512 40,000 540 Climbing Indianapolis Center
17:15 37.4761 -82.7533 188° South 444 511 40,000  Level Indianapolis Center
17:16 37.3256 -82.7808 188° South 464 534 40,000  Level Indianapolis Center
17:17 37.1933 -82.8039 188° South 472 543 40,000  Level Indianapolis Center
17:18 37.0583 -82.8275 188° South 482 555 40,000  Level Indianapolis Center
17:20 36.9061 -82.8556 188° South 491 565 40,000  Level Indianapolis Center
17:21 36.7694 -82.8781 188° South 501 577 40,000  Level Indianapolis Center
17:22 36.6325 -82.9025 188° South 498 573 40,000  Level Indianapolis Center
17:23 36.5014 -82.9261 188° South 481 554 40,000  Level Indianapolis Center
17:24 36.3689 -82.9489 188° South 478 550 40,000  Level Indianapolis Center
17:24 36.2747 -82.9672 189° South 481 554 40,000  Level Atlanta Center
17:25 36.1436 -82.9897 188° South 481 554 40,000  Level Atlanta Center
17:26 36.0103 -83.0144 189° South 481 554 40,000  Level Atlanta Center
17:27 35.8769 -83.0367 188° South 487 560 40,000 -540 Level Atlanta Center
17:28 35.7519 -83.0817 196° South 477 549 39,000 -1,260 Descending Atlanta Center
17:29 35.6442 -83.1725 214° Southwest 467 537 37,500 -1,500 Descending Atlanta Center
17:30 35.5386 -83.2628 215° Southwest 473 544 36,000 -1,980 Descending Atlanta Center
17:31 35.4347 -83.3556 216° Southwest 473 544 33,600 -2,400 Descending Atlanta Center
17:32 35.3561 -83.4708 230° Southwest 448 516 31,200 -2,400 Descending Atlanta Center
17:33 35.2961 -83.5961 240° Southwest 443 510 28,800 -1,620 Descending Atlanta Center
17:34 35.2381 -83.7183 240° Southwest 431 496 28,000 -960 Descending Atlanta Center
17:35 35.1422 -83.7872 210° Southwest 396 456 26,900 -1,800 Descending Atlanta Center
17:36 35.0294 -83.8308 198° South 405 466 24,500 -2,400 Descending Atlanta Center
17:37 34.9294 -83.8589 193° South 410 472 22,200 -2,400 Descending Atlanta Center
17:38 34.8147 -83.9047 198° South 410 472 19,700 -2,460 Descending Atlanta Center
17:39 34.7083 -83.9225 188° South 391 450 17,300 -2,760 Descending Atlanta Center
17:40 34.6061 -83.9025 171° South 381 438 14,200 -3,420 Descending Atlanta Center
17:42 34.4494 -83.9281 188° South 288 331 7,200 -2,820 Descending Atlanta Center
17:43 34.3808 -83.9758 210° Southwest 278 320 5,900 -600 Descending Atlanta Center
17:44 34.3244 -84.0389 223° Southwest 283 326 6,000  Climbing Atlanta Center
17:45 34.2825 -84.1092 234° Southwest 272 313 6,000 -720 Level Atlanta Center
17:47 34.1906 -84.2422 230° Southwest 277 319 4,000 -1,080 Descending Atlanta Center
17:48 34.1406 -84.3072 227° Southwest 277 319 2,900 -600 Descending Atlanta Center
17:49 34.0964 -84.3675 229° Southwest 257 296 2,800 -60 Descending Atlanta Center
17:50 34.0608 -84.4225 232° Southwest 231 266 2,800 -180 Level Atlanta Center
17:51 34.0231 -84.4800 232° Southwest 226 260 2,500 -300 Descending Atlanta Center